Home   Weather   Syktyvkar   Past weeks
Flag for Russia

Past Weather in Syktyvkar, Russia — Yesterday and Last 2 Weeks

Now
50 °F

Sunny.


Feels Like: 49 °F
Forecast: 63 / 50 °F
Wind: 3 mph from Southeast

Location: Syktyvkar Airport

Current Time: May 26, 2019 at 6:23:14 am

Latest Report: May 26, 2019 at 5:30 am


Visibility: 10 mi

Pressure: 29.77 "Hg

Humidity: 58%

Dew Point: 36 °F

Location of SyktyvkarLocation

Past Weather in Syktyvkar — Graph

°F

Syktyvkar Temperature Yesterday

Maximum temperature yesterday: 55 °F (at 2:30 pm)
Minimum temperature yesterday: 34 °F (at 12:30 am)
Average temperature yesterday: 45 °F

High & Low Weather Summary for the Past Weeks

 TemperatureHumidityPressure
High88 °F (May 12, 1:30 pm)100% (May 16, 1:00 am)30.27 "Hg (May 16, 1:00 am)
Low28 °F (May 22, 3:00 am)20% (May 22, 2:30 pm)29.59 "Hg (May 23, 3:00 am)
Average50 °F63%29.96 "Hg
* Reported May 11 5:00 am — May 26 5:30 am, Syktyvkar. Weather by CustomWeather, © 2019

Note: Actual official high and low records may vary slightly from our data, if they occured in-between our weather recording intervals... More about our weather records

Advertising

Syktyvkar Weather History for the Previous 24 Hours

Scroll right to see more
 ConditionsComfort  
Time TempWeatherWind HumidityBarometerVisibility
5:30 am
Sun, May 26
50 °FSunny.3 mph58%29.77 "Hg10 mi
5:00 am46 °FSunny.1 mph62%29.80 "Hg10 mi
4:30 am45 °FSunny.3 mph66%29.80 "Hg10 mi
4:00 am43 °FSunny.3 mph71%29.83 "Hg10 mi
3:30 am43 °FSunny.3 mph71%29.83 "Hg10 mi
3:00 am43 °FSunny.3 mph61%29.83 "Hg10 mi
2:30 am43 °FSunny.3 mph61%29.83 "Hg10 mi
2:00 am43 °FClear.1 mph61%29.83 "Hg10 mi
1:30 am43 °FClear.1 mph61%29.86 "Hg10 mi
1:00 am43 °FClear.1 mph61%29.86 "Hg10 mi
12:30 am43 °FClear.No wind61%29.86 "Hg10 mi
12:00 am43 °FClear.1 mph61%29.89 "Hg10 mi
11:30 pm
Sat, May 25
41 °FClear.3 mph66%29.89 "Hg10 mi
11:00 pm45 °FClear.No wind57%29.89 "Hg10 mi
10:30 pm45 °FClear.1 mph57%29.89 "Hg10 mi
10:00 pm45 °FClear.1 mph57%29.89 "Hg10 mi
9:30 pm45 °FClear.No wind57%29.89 "HgN/A
9:00 pm45 °FClear.1 mph57%29.89 "Hg10 mi
8:30 pm45 °FSunny.No wind49%29.89 "Hg10 mi
8:00 pm50 °FSunny.No wind40%29.89 "Hg10 mi
7:30 pm52 °FSunny.3 mph35%29.89 "Hg10 mi
7:00 pm54 °FSunny.3 mph33%29.89 "Hg10 mi
6:30 pm55 °FPassing clouds.3 mph31%29.89 "HgN/A
6:00 pm55 °FPassing clouds.6 mph28%29.89 "HgN/A
5:30 pm55 °FSunny.6 mph31%29.89 "Hg10 mi
5:00 pm55 °FPassing clouds.6 mph28%29.92 "HgN/A
4:30 pm55 °FSunny.6 mph28%29.92 "Hg10 mi
4:00 pm55 °FSunny.8 mph31%29.92 "Hg10 mi
3:30 pm54 °FPassing clouds.8 mph30%29.92 "HgN/A
3:00 pm55 °FPassing clouds.6 mph31%29.92 "HgN/A
2:30 pm55 °FPassing clouds.6 mph28%29.95 "HgN/A
2:00 pm54 °FSunny.8 mph33%29.95 "Hg10 mi
1:30 pm52 °FPassing clouds.6 mph35%29.95 "HgN/A
1:00 pm52 °FSunny.8 mph32%29.95 "Hg10 mi
12:30 pm50 °FSunny.8 mph37%29.95 "Hg10 mi
12:00 pm50 °FPassing clouds.8 mph35%29.98 "HgN/A
11:30 am48 °FPassing clouds.6 mph40%29.98 "HgN/A
11:00 am48 °FPassing clouds.6 mph40%29.98 "HgN/A
10:30 am46 °FSunny.6 mph40%29.98 "Hg10 mi
10:00 am46 °FPartly sunny.8 mph40%30.01 "HgN/A
9:30 am45 °FPartly sunny.6 mph42%30.01 "HgN/A
9:00 am43 °FPartly sunny.6 mph46%30.01 "HgN/A
8:30 am43 °FPartly sunny.6 mph46%30.01 "HgN/A
8:00 am43 °FPartly sunny.6 mph49%30.01 "HgN/A
7:30 am41 °FPartly sunny.6 mph57%30.01 "HgN/A
7:00 am43 °FScattered clouds.6 mph53%30.01 "HgN/A
6:30 am41 °FPassing clouds.6 mph57%30.01 "HgN/A
6:00 am39 °FSunny.3 mph61%30.01 "Hg10 mi
Weather by CustomWeather, © 2019

See weather overview